Regional Weather Roundup
Issued by NWS

Home | Current Version | Previous Version | Text Only | Print | Product List | Glossary On
Versions: 1 2 3 4 5 6 7 8 9 10 11 12 13 14 15 16 17 18 19 20 21 22 23 24 25 26 27 28 29 30 31 32 33 34 35 36 37 38 39 40 41 42 43 44 45 46 47 48
000
ASUS45 KCYS 200310
RWRWY

WYOMING REGIONAL WEATHER ROUNDUP
NATIONAL WEATHER SERVICE CHEYENNE WY
800 PM MST FRI DEC 19 2014

NOTE:  "FAIR" INDICATES FEW OR NO CLOUDS BELOW 12,000 FEET
WITH NO SIGNIFICANT WEATHER AND/OR OBSTRUCTIONS TO VISIBILITY.

WYZ001-200400-
YELLOWSTONE NATIONAL PARK

CITY           SKY/WX    TMP DP  RH WIND       PRES   REMARKS
LK YELLOWSTONE   N/A     25  22  88 CALM      30.02R
W YELLOWSTONE  NOT AVBL

$$
WYZ002>013-054>058-071-098>099-200400-
NORTHERN WYOMING

CITY           SKY/WX    TMP DP  RH WIND       PRES   REMARKS
JACKSON        CLOUDY    32  28  86 S16       30.03S FOG     WCI  21
CODY           FAIR      37  23  56 N7        29.89S WCI  32
GREYBULL       FAIR      19  15  84 SW5       29.96S WCI  12
WORLAND        FAIR      11   7  84 SE5       29.95S WCI   3
SHERIDAN       FAIR      25  18  74 N5        29.86S WCI  19
BUFFALO        FAIR      31  16  54 SW8       29.88S WCI  23
GILLETTE       FAIR      32  21  64 SW8       29.89S WCI  25
HULETT           N/A    N/A N/A N/A MISG        N/A
NEWCASTLE      FAIR      28  19  69 CALM      29.95S

$$
WYZ014>020-022>026-101>103-200400-
CENTRAL WYOMING

CITY           SKY/WX    TMP DP  RH WIND       PRES   REMARKS
BIG PINEY      MOCLDY    24  18  77 NE6       30.07R WCI  17
PINEDALE       CLOUDY    27  25  93 W3        30.07S
DUBOIS         NOT AVBL
LANDER         FAIR      11   7  84 NW8       29.96F FOG     WCI  -1
RIVERTON       FAIR       9   6  88 CALM      29.97F
CASPER         FAIR      30  21  69 SW20      29.97S WCI  17
DOUGLAS        FAIR      34  22  61 W7        29.95S WCI  28

$$
WYZ021-027>030-104>119-200400-
SOUTHERN WYOMING

CITY           SKY/WX    TMP DP  RH WIND       PRES   REMARKS
EVANSTON       MOCLDY    30  21  69 W3        30.09R
KEMMERER       CLOUDY    30  23  74 CALM      30.08S
FORT BRIDGER   CLOUDY    34  24  66 W15       30.11S WCI  24
ROCK SPRINGS   CLOUDY    29  22  75 SW6       30.08S WCI  23
DIXON          CLOUDY    22  17  83 S3        30.17S
RAWLINS        FAIR      26  17  68 SW14      30.05R WCI  14
SARATOGA       FAIR      25  18  74 SE8       30.10R WCI  16
LARAMIE        FAIR      26  14  60 SW18      30.01F WCI  13
CHEYENNE       FAIR      30  14  51 MISG      29.99F
TORRINGTON     FAIR     N/A N/A N/A CALM      29.97F
PINE BLUFFS    FAIR      28  18  64 SW3       30.01S

$$


USA.gov is the U.S. government's official web portal to all federal, state and local government web resources and services.